Flag for Germany Weather past 2 weeks in Westerstede, Lower Saxony, Germany

Now
61 °F

Cool.


Feels Like: 61 °F
Forecast: 53 / 59 °F
Wind: 20 mph from Southwest

Location: Wittmundhaven

Current Time: Sep 4, 2015 at 3:31:21 PM

Latest Report: Sep 4, 2015 at 1:20 PM


Visibility: 4 mi

Pressure: 29.77 "Hg

Humidity: 72%

Dew point: 52 °F

Location of WesterstedeLocation

Historic Weather in Westerstede — Graph

°F

Westerstede temperature yesterday

Maximum temperature yesterday: 63 °F (at 1:20 PM)
Minimum temperature yesterday: 48 °F (at 4:20 AM)
Average temperature yesterday: 55 °F

Past Weeks' High & Low Weather Summary

 TemperatureHumidityPressure
High77 °F (Aug 21, 3:20 PM)100% (Aug 21, 6:20 AM)30.27 "Hg (Aug 21, 6:20 AM)
Low48 °F (Sep 3, 4:20 AM)34% (Aug 22, 1:20 PM)29.50 "Hg (Aug 24, 6:20 PM)
Average63 °F78%29.92 "Hg
* Reported Aug 20 1:20 PM — Sep 4 1:20 PM, Westerstede, Weather by CustomWeather, © 2015

Note: Actual official high and low records may vary slightly from our data, if they occured in-between our weather recording intervals... More about our weather records

Advertising

Westerstede weather history for previous 24 hours

 ConditionsComfort  
Time TempWeatherWind HumidityBarometerVisibility
1:20 PM
Fri, Sep 4
61 °FCool.20 mph72%29.77 "Hg4 mi
12:20 PM59 °FBroken clouds.18 mph77%29.77 "HgN/A
11:20 AM57 °FPartly sunny.15 mph82%29.80 "HgN/A
10:20 AM55 °FPartly sunny.15 mph88%29.80 "HgN/A
9:20 AM54 °FPartly sunny.15 mph88%29.80 "HgN/A
8:20 AM54 °FDrizzle. Partly sunny.14 mph88%29.80 "HgN/A
7:20 AM52 °FLight rain. Passing clouds.13 mph94%29.80 "HgN/A
6:20 AM52 °FPartly cloudy.12 mph94%29.80 "HgN/A
5:20 AM52 °FLight rain. Passing clouds.12 mph88%29.80 "HgN/A
4:20 AM52 °FPartly cloudy.10 mph88%29.83 "HgN/A
3:20 AM50 °FPassing clouds.9 mph94%29.83 "HgN/A
2:20 AM50 °FPassing clouds.8 mph94%29.86 "HgN/A
1:20 AM50 °FPassing clouds.7 mph94%29.86 "HgN/A
12:20 AM50 °FPassing clouds.7 mph94%29.86 "HgN/A
11:20 PM
Thu, Sep 3
52 °FPassing clouds.6 mph88%29.86 "HgN/A
10:20 PM52 °FPassing clouds.7 mph94%29.86 "HgN/A
9:20 PM54 °FPassing clouds.6 mph88%29.86 "HgN/A
8:20 PM55 °FBroken clouds.6 mph88%29.86 "HgN/A
7:20 PM57 °FBroken clouds.9 mph82%29.86 "HgN/A
6:20 PM59 °FPartly sunny.9 mph72%29.86 "HgN/A
5:49 PM59 °FBroken clouds.9 mph72%29.86 "HgN/A
5:20 PM59 °FBroken clouds.10 mph77%29.86 "HgN/A
4:20 PM59 °FThunderstorms. Partly sunny.12 mph72%29.86 "HgN/A
3:20 PM63 °FScattered clouds.14 mph56%29.86 "HgN/A
Weather by CustomWeather, © 2015

See weather overviewHow to use our weather pages